Regional Weather Roundup
Issued by NWS

Home | Current Version | Previous Version | Graphics & Text | Print | Product List | Glossary On
Versions: 1 2 3 4 5 6 7 8 9 10 11 12 13 14 15 16 17 18 19 20 21 22 23 24 25 26 27 28 29 30 31 32 33 34 35 36 37 38 39 40 41 42 43 44 45 46 47 48 49 50
000
ASUS43 KOAX 282002
RWRNE

WEATHER ROUNDUP FOR NEBRASKA
NATIONAL WEATHER SERVICE OMAHA NE
300 PM CDT SAT MAR 28 2015

NOTES: SATELLITE DATA IS BEING USED TO AUGMENT CLOUD COVER ABOVE
       12000 FEET.
       "FAIR" INDICATES FEW OR NO CLOUDS BELOW 12,000 FEET WITH NO
       SIGNIFICANT WEATHER AND/OR OBSTRUCTIONS TO VISIBILITY.

  * THESE STATIONS DO NOT REPORT WEATHER SUCH AS RAIN...SNOW OR FOG.

NEZ001>004-019>022-054>056-282100-
NEBRASKA PANHANDLE

CITY           SKY/WX    TMP DP  RH WIND       PRES   REMARKS
SCOTTSBLUFF    SUNNY     80  26  13 NW17G26   29.85F
ALLIANCE       SUNNY     78  30  17 W21G26    29.84F
CHADRON        SUNNY     80  33  18 SW10      29.77F
SIDNEY         SUNNY     80  27  14 W20G26    29.90F
$$

NEZ057>060-069>072-079>082-282100-
SOUTHWEST NEBRASKA

CITY           SKY/WX    TMP DP  RH WIND       PRES   REMARKS
NORTH PLATTE   SUNNY     74  35  24 S13G20    29.91F
IMPERIAL         N/A     76  32  20 S13G22    29.92F
MCCOOK         SUNNY     76  35  22 VRB6      29.93F
$$

NEZ005>010-023>029-035>040-094-282100-
NORTH CENTRAL NEBRASKA

CITY           SKY/WX    TMP DP  RH WIND       PRES   REMARKS
VALENTINE      SUNNY     74  33  22 S17G25    29.84F
AINSWORTH      SUNNY     68  34  28 S14G23    29.89F
BROKEN BOW     SUNNY     65  35  33 S17G25    29.95F
ORD            SUNNY     60  30  32 SE15G23   29.96F
$$

NEZ041-046>049-061>064-073>077-083>087-282100-
SOUTH CENTRAL NEBRASKA

CITY           SKY/WX    TMP DP  RH WIND       PRES   REMARKS
GRAND ISLAND   SUNNY     58  33  39 SE14      30.01F
HASTINGS       SUNNY     61  33  35 SE14      29.99F
KEARNEY *      SUNNY     64  34  32 SE15      29.98F
$$

NEZ011>018-030>034-042>045-282100-
NORTHEAST NEBRASKA

CITY           SKY/WX    TMP DP  RH WIND       PRES   REMARKS
NORFOLK        SUNNY     52  33  48 SE15      30.02F
COLUMBUS *     SUNNY     54  32  43 S16       30.06F
TEKAMAH        SUNNY     54  26  34 SE16G38   30.09F
$$

NEZ050>053-065>068-078-088>093-282100-
SOUTHEAST NEBRASKA

CITY           SKY/WX    TMP DP  RH WIND       PRES   REMARKS
LINCOLN        SUNNY     54  32  43 SE14      30.09F
OMAHA EPPLEY   MOSUNNY   51  28  41 SE15      30.10F
FALLS CITY     SUNNY     54  31  41 E14G23    30.11F
$$

NEZ044-045-051>053-067-282100-
OMAHA AREA

CITY           SKY/WX    TMP DP  RH WIND       PRES   REMARKS
OMAHA EPPLEY   MOSUNNY   51  28  41 SE15      30.10F
OFFUTT AFB     SUNNY     52  29  40 S14G21    30.09F
$$


USA.gov is the U.S. government's official web portal to all federal, state and local government web resources and services.